Player

League Team Hits
ECL Season 1 - Regular Season Rideway Raiders 18 11 11 22 -41 25 1 1 0 55 20% 33 19.1%
ECL 4 - Pro - Regular Season The Lights Out 20 17 11 28 -29 10 1 0 1 89 19.1% 17 100%
ECL 4 - Pro - Playoffs The Lights Out 7 7 2 9 -3 6 1 0 2 35 20% 6 -
Summer Cup - Season 2 - Regular Season NG 50 Shades of Blades 4 1 4 5 -2 2 0 0 0 16 6.3% 3 -
ECL 5 - Lite - Playoffs Rukoilevat Hinkkaajat 1 0 0 0 -3 0 0 0 0 1 0% 2 66.7%
ECL 6 - Lite - Regular Season Finnish Prospects 8 9 4 13 -7 4 1 0 0 31 29% 11 100%
ECL 7 - Lite - Regular Season SHECANGO 12 5 3 8 -9 12 0 0 1 30 16.7% 20 50%
ECL 7 - Lite - Playoffs SHECANGO 5 1 3 4 -1 4 0 0 0 15 6.7% 9 36.4%
ECL 8 - Lite - Regular Season Chatbox 21 1 13 14 15 27 0 0 0 26 3.8% 87 -
ECL 8 - Lite - Playoffs Chatbox 14 0 11 11 11 8 0 0 0 7 0% 57 -

Goalie

League Team
ECL Season 3 - Regular Season BraZZers 4 0 4 0 33 34 49.25 8.49 0 120
ECL 5 - Lite - Regular Season Rukoilevat Hinkkaajat 10 5 4 1 101 26 79.52 2.59 0 120
ECL 5 - Lite - Playoffs Rukoilevat Hinkkaajat 5 1 3 1 40 24 62.50 4.80 0 120
ECL 7 - Lite - Regular Season SHECANGO 2 1 1 0 20 7 74.07 3.49 1 120
Date Game G + A = P +/- PPG SHG S S% FOW FO% HITS PIM TA/GA
2019-01-08 SKA Hokurit - Chatbox RD 0 + 1 = 1 0 0 0 0 0% 0 - 7 0 3/5
2019-01-08 Chatbox - SKA Hokurit RD 0 + 0 = 0 3 0 0 1 0% 0 - 8 0 4/2
2019-01-09 Chatbox - EV Fuessen eSports RD 0 + 0 = 0 -1 0 0 4 0% 0 - 4 2 5/6
2019-01-09 EV Fuessen eSports - Chatbox RD 0 + 2 = 2 -5 0 0 1 0% 0 - 8 2 2/3
2019-01-14 Chatbox - We Kings RD 0 + 1 = 1 -3 0 0 1 0% 0 - 2 2 0/5
2019-01-14 We Kings - Chatbox RD 0 + 1 = 1 1 0 0 0 0% 0 - 6 0 4/5
2019-01-15 The Everblades - Chatbox RD 0 + 1 = 1 2 0 0 2 0% 0 - 4 2 2/4
2019-01-15 Chatbox - The Everblades RD 0 + 0 = 0 3 0 0 1 0% 0 - 5 2 5/4
2019-01-16 Chatbox - HC Bad Boys RD 0 + 0 = 0 1 0 0 0 0% 0 - 2 2 4/3
2019-01-16 HC Bad Boys - Chatbox RD 0 + 1 = 1 0 0 0 2 0% 0 - 2 0 2/5
2019-01-21 Red Light Zone - Chatbox RD 1 + 1 = 2 2 0 0 1 100% 0 - 3 0 1/12
2019-01-21 Chatbox - Red Light Zone RD 0 + 1 = 1 3 0 0 1 0% 0 - 3 7 3/4
2019-01-23 Chatbox - DEG eSports RD 0 + 1 = 1 4 0 0 1 0% 0 - 1 0 1/8
2019-01-23 K A R H U T - Chatbox RD 0 + 1 = 1 -1 0 0 1 0% 0 - 6 0 4/12
2019-01-23 DEG eSports - Chatbox RD 0 + 0 = 0 2 0 0 1 0% 0 - 4 0 2/12
2019-01-23 Chatbox - K A R H U T RD 0 + 0 = 0 0 0 0 0 0% 0 - 6 2 1/5
2019-01-27 Czech Infamous - Chatbox RD 0 + 1 = 1 2 0 0 3 0% 0 - 4 2 5/7
2019-01-30 Oton Letkutemppu - Chatbox RD 0 + 0 = 0 -4 0 0 1 0% 0 - 5 0 3/6
2019-01-30 Chatbox - Oton Letkutemppu RD 0 + 1 = 1 -1 0 0 0 0% 0 - 1 2 4/9
2019-02-05 Chatbox - Korpens Finest RD 0 + 0 = 0 0 0 0 2 0% 0 - 4 0 4/8
2019-02-05 Korpens Finest - Chatbox RD 0 + 0 = 0 -1 0 0 3 0% 0 - 2 2 4/3
2019-02-11 Uncle Dens - Chatbox RD 0 + 0 = 0 1 0 0 0 0% 0 - 2 2 4/8
2019-02-11 Chatbox - Uncle Dens RD 0 + 2 = 2 2 0 0 0 0% 0 - 3 0 0/7
2019-02-12 Chatbox - Uncle Dens RD 0 + 0 = 0 3 0 0 0 0% 0 - 2 2 1/5
2019-02-12 Uncle Dens - Chatbox RD 0 + 1 = 1 1 0 0 0 0% 0 - 4 0 0/4
2019-02-18 Chatbox - Mighty French Roosters RD 0 + 1 = 1 -1 0 0 1 0% 0 - 9 0 4/8
2019-02-18 Chatbox - Mighty French Roosters RD 0 + 1 = 1 -1 0 0 0 0% 0 - 1 0 3/4
2019-02-18 Mighty French Roosters - Chatbox RD 0 + 1 = 1 1 0 0 0 0% 0 - 3 0 1/9
2019-02-18 Mighty French Roosters - Chatbox RD 0 + 1 = 1 3 0 0 1 0% 0 - 5 0 1/5
2019-02-20 Mighty French Roosters - Chatbox RD 0 + 0 = 0 3 0 0 0 0% 0 - 7 0 3/0
2019-02-20 Chatbox - Mighty French Roosters RD 0 + 1 = 1 2 0 0 0 0% 0 - 5 0 1/5
2019-02-25 Chatbox - Vesa Pompa HC RD 0 + 1 = 1 0 0 0 3 0% 0 - 4 2 3/18
2019-02-25 Vesa Pompa HC - Chatbox RD 0 + 1 = 1 0 0 0 0 0% 0 - 5 0 3/4
2019-02-26 Vesa Pompa HC - Chatbox RD 0 + 0 = 0 -2 0 0 1 0% 0 - 4 0 3/5
2019-02-26 Vesa Pompa HC - Chatbox RD 0 + 1 = 1 -2 0 0 1 0% 0 - 3 2 2/2
Date Game S GA S% PIM G A P